Regional Weather Roundup
Issued by NWS

Home | Current Version | Previous Version | Text Only | Print | Product List | Glossary Off
Versions: 1 2 3 4 5 6 7 8 9 10 11 12 13 14 15 16 17 18 19 20 21 22 23 24 25 26 27 28 29 30 31 32 33 34 35 36 37 38 39 40 41 42 43 44 45 46 47 48 49 50

000
ASUS43 KLSX 060559
RWRMO

WEATHER SUMMARY FOR MISSOURI
NATIONAL WEATHER SERVICE SPRINGFIELD MO
1200 AM CST FRI MAR 06 2015

NOTE: "FAIR" INDICATES FEW OR NO CLOUDS BELOW 12,000 FEET WITH NO
       SIGNIFICANT WEATHER AND/OR OBSTRUCTIONS TO VISIBILITY.
       CURRENT SKY AND/OR WEATHER CONDITIONS ARE NOT AVAILABLE FOR
       CHILLICOTHE AND FARMINGTON.

MOZ001>031-035>038-043-044-053-054-060700-
...NORTHERN AND WESTERN MISSOURI...

CITY           SKY/WX    TMP DP  RH WIND       PRES   REMARKS
KANSAS CTY INT CLEAR     23  13  65 S12       30.42F WCI  12
6HR MIN TEMP:  20; 6HR MAX TEMP:  28;

KANSAS C DTWN  CLEAR     26  11  52 S6        30.45F WCI  19
6HR MIN TEMP:  25; 6HR MAX TEMP:  33;

LEE`S SUMMIT   CLEAR     24  11  57 S10       30.45F WCI  14
6HR MIN TEMP:  23; 6HR MAX TEMP:  30;

ST JOSEPH      CLEAR     23  12  62 S10       30.43F WCI  12
6HR MIN TEMP:  20; 6HR MAX TEMP:  29;

CHILLICOTHE      N/A     21   9  59 S7        30.48F WCI  12
6HR MIN TEMP:  20; 6HR MAX TEMP:  27;

KIRKSVILLE     CLEAR     13   9  84 SE6       30.48F WCI   4
6HR MIN TEMP:  12; 6HR MAX TEMP:  23;


$$
MOZ066>068-077>081-088>096-101>105-060700-
...SOUTHWEST MISSOURI...

CITY           SKY/WX    TMP DP  RH WIND       PRES   REMARKS
SPRINGFIELD    CLEAR     20  12  71 SE7       30.49F WCI  11
6HR MIN TEMP:  19; 6HR MAX TEMP:  32;

JOPLIN         CLEAR     25  14  63 S9        30.50F WCI  15
6HR MIN TEMP:  24; 6HR MAX TEMP:  34;


$$
MOZ032>034-039>042-045>050-055>058-069>072-060700-
...CENTRAL MISSOURI...

CITY           SKY/WX    TMP DP  RH WIND       PRES   REMARKS
COLUMBIA       CLEAR     17   9  70 SE7       30.51F WCI   8
6HR MIN TEMP:  17; 6HR MAX TEMP:  26;

JEFFERSON CITY CLEAR     18  10  71 SE5       30.56F WCI  11
6HR MIN TEMP:  17; 6HR MAX TEMP:  27;

ROLLA          CLEAR     19   9  65 E7        30.50F WCI  10
6HR MIN TEMP:  18; 6HR MAX TEMP:  26;

SEDALIA        CLEAR     21  10  62 SE8       30.50F WCI  11
6HR MIN TEMP:  20; 6HR MAX TEMP:  28;

OSAGE BEACH    CLEAR     16   9  73 SE3       30.51F

$$
MOZ051-052-059>065-060700-
...EAST CENTRAL MISSOURI...

CITY           SKY/WX    TMP DP  RH WIND       PRES   REMARKS
ST LOUIS INTL  CLEAR     15   5  64 E6        30.58F WCI   6
6HR MIN TEMP:  15; 6HR MAX TEMP:  22;

SPIRIT OF STL  CLEAR     14   8  77 CALM      30.57F
6HR MIN TEMP:  14; 6HR MAX TEMP:  23;

ST CHARLES     CLEAR      9   2  73 E7        30.59F WCI  -2
6HR MIN TEMP:   9; 6HR MAX TEMP:  21;


$$
MOZ072>076-082>087-097>100-106>115-060700-
...SOUTH CENTRAL AND SOUTHEAST MISSOURI...

CITY           SKY/WX    TMP DP  RH WIND       PRES   REMARKS
CAPE GIRARDEAU PTCLDY     3   2  95 CALM      30.61F
6HR MIN TEMP:   1; 6HR MAX TEMP:  21;

FARMINGTON     CLEAR     12  10  92 SE3       30.57F
6HR MIN TEMP:  12; 6HR MAX TEMP:  25;

POPLAR BLUFF   PTCLDY    13   9  84 CALM      30.60F
6HR MIN TEMP:  13; 6HR MAX TEMP:  24;

WEST PLAINS    CLEAR     14   5  67 CALM      30.53S
6HR MIN TEMP:  12; 6HR MAX TEMP:  28;


$$


USA.gov is the U.S. government's official web portal to all federal, state and local government web resources and services.